Weather in Sakarçäge

Turkmenistan     37°39′48″N   61°39′18″E
temp.,
°C
wind,
m/s
gust,
m/s
humid.,
%
clouds,
%
prec.,
mm/h
press.,
hPa
HPBL,
m
12 august, fri
fri1223:00+26n411230 0.0 1010193
02:00+24n411260 0.0 1010206
05:00+23n49270 0.0 1009149
08:00+26nne58260 0.0 1010283
11:00+33nne78180 0.0 10102194
14:00+36n89140 0.0 10072455
17:00+36nne89120 0.0 10062564
20:00+31n511170 0.0 1007213
13 august, sat
sat1323:00+28n510210 0.0 1007163
02:00+26n410240 0.0 1008164
05:00+24nne410270 0.0 1008168
08:00+28nne510220 0.0 1009323
11:00+34nne78140 0.0 10082288
14:00+37n78110 0.0 10062623
17:00+37n88110 0.0 10042773
20:00+31n48160 0.0 1004108
14 august, sun
sun1423:00+28nnw47200 0.0 100592
02:00+27nnw47220 0.0 100499
05:00+25n48250 0.0 1004130
08:00+28nne58230 0.0 1006276
11:00+36n67140 0.0 10052377
14:00+38n66110 0.0 10042910
17:00+38n77100 0.0 10022922
20:00+32nnw46150 0.0 100381
15 august, mon
mon1523:00+29n47170 0.0 100486
02:00+27n48220 0.0 1004124
05:00+26n47250 0.0 1004117
08:00+29nne45200 0.0 1006177
11:00+37n45130 0.0 10062755
14:00+39nnw55100 0.0 10043086
17:00+39nnw67100 0.0 10033149
20:00+33nnw47140 0.0 100495
16 august, tue
tue1623:00+30nw511170 0.0 1005167
02:00+28nnw48190 0.0 1005122
05:00+26n47240 0.0 100697
08:00+30nne47210 0.0 1007230
11:00+37n57140 0.0 10072600
14:00+39n88120 0.0 10063106
17:00+39n99110 0.0 10042978
20:00+34n612150 0.0 1006262